FENGYUN 1C DEB, 30686

Orbit data source: Space-Track

FENGYUN 1C DEB, 30686 is space debris in SSO originally from a launch on Mon, 10 May 1999 UTC launched from the Taiyaun Space Center, China (TSC). Fengyun 1C debris stems from the Chinese weather satellite Fengyun-1C, which was intentionally destroyed by a Chinese anti-satellite missile in 2007. This event dramatically increased the amount of space debris, with thousands of trackable fragments posing hazards to satellites and human spaceflight. The Fengyun 1C debris cloud has become a focal point in discussions about space sustainability and the need for international regulations to prevent the creation of new debris.

Loading next visibility...
Identifier
30686, 1999-025AQU
Orbit
SSO
Country
Flag of CNCN / PRC
Related business
Manufacturer
Unknown
Mission
Spacecraft
Bus & Motor
Unknown
Mass
Unknown
Launch date (UTC)
1999-05-10 (27 years ago)
Launch vehicle
Unknown
Launch site
Taiyaun Space Center, China (TSC)
Object type
Payload
Rocket body
Debris
Shape & HBR
Unknown shape, 0.1 m
Radar Cross Section
Small (<0.1 m²)

Expand to show TLE details & history
Last TLE update: 1 day ago

TLE from 1 day ago
0 FENGYUN 1C DEB
1 30686U 99025AQU 26143.58712670  .00002469  00000-0  31754-3 0  9994
2 30686  99.0226   1.0892 0138947 336.6417  77.0877 14.75729189 19880
Epoch: 2026-05-23T14:05Z
TLE epoch observation values (Epoch: 2026-05-23T14:05:27.746Z)
Latitude
54.38039°
Longitude
-104.21224°
Altitude
631.272 km
Speed
7.559 km/s
True Right ascension
23h 13m 25s
True Declination
54° 12' 52"
Sunlit
Object was in daylight at epoch
Visualization orbit readout
Latitude
Unknown
Longitude
Unknown
Altitude
Unknown
Speed
Unknown
Apparent Right ascension
Unknown
Apparent Declination
Unknown
Sunlit
N/A
Visualization observer readout
Local Sidereal Time
10:27:00
Azimuth
Unknown
Elevation
Unknown
Doppler factor
Unknown
Orbital elements
Apogee altitude
737.451 km
Perigee altitude
542.423 km
Semi-major axis
7,018.074 km
Eccentricity
0.01389
Inclination
99.0226°
RAAN
1.0892°
Arg. of periapsis
336.6417°
True anomaly
78.64551°
Mean anomaly
77.0877°
Eccentric anomaly
77.86602°
Mean motion
3.69161 °/min
Orbital period
97.52 mins
BSTAR
0.00031754
Loading maneuver chart data...
Computing Atmospheric mass density...

Documentation

Showing up to 5 results
|